Wind_Speed
14 14 13 13 14 13 13 13 13 12 12 11 10 9 9 8 7 7 6 6 5 5 5 4 4 3 3 3 2 3 3 2 2 2 2 2 2 2 2 2 2 2 2
15 15 15 15 15 14 14 14 13 13 13 12 11 11 10 10 9 8 7 7 7 7 6 6 5 5 4 4 4 4 4 3 3 3 3 3 3 3 3 3 3 3 3
17 16 16 16 16 15 15 15 14 14 14 13 12 12 11 11 10 9 9 8 8 8 8 8 7 7 6 6 5 5 5 5 5 5 4 4 5 5 5 4 4 3 3
18 17 17 17 17 16 16 15 15 15 14 14 13 13 12 12 11 11 10 10 10 10 10 9 8 8 7 7 7 7 7 6 7 6 6 6 6 6 6 6 5 5 5
19 19 19 18 18 17 17 16 16 16 15 15 14 14 13 13 12 12 12 11 11 11 11 11 10 9 9 9 9 9 9 8 8 8 8 8 8 7 7 7 7 7 7
20 20 20 19 19 19 18 18 17 17 17 16 15 16 15 14 14 14 13 12 12 12 12 12 11 11 11 10 10 10 11 10 10 10 9 9 9 9 9 9 9 9 9
22 22 21 21 21 20 20 19 19 19 18 18 17 17 17 16 15 15 15 14 13 13 13 13 13 13 13 12 12 12 12 12 11 11 11 11 10 10 11 11 10 10 11
24 23 23 22 22 22 21 21 20 20 20 19 19 18 18 17 17 16 16 15 15 14 14 14 14 14 14 14 14 14 14 13 13 13 12 12 12 12 12 12 12 12 11
26 25 24 24 23 23 22 22 21 20 21 21 20 20 19 19 18 18 17 17 17 16 16 15 15 15 15 15 16 16 15 15 15 15 14 14 14 14 13 14 14 13 13
27 27 26 25 24 24 23 23 22 22 22 21 21 21 21 20 20 19 19 18 18 18 17 17 17 17 17 17 18 17 17 17 16 16 16 16 15 15 15 15 15 15 14
28 28 27 27 26 25 25 24 23 23 23 23 22 22 22 22 21 21 21 20 20 20 20 19 19 19 19 19 19 19 19 18 18 18 18 18 17 17 17 17 17 17 17
30 29 28 28 27 27 26 26 25 25 25 24 24 23 23 22 22 22 22 22 22 22 22 22 21 21 21 21 20 20 20 20 20 20 20 19 19 19 19 18 19 19 19
32 31 30 29 29 28 27 26 27 26 26 25 25 25 24 23 23 23 24 24 23 23 23 24 23 23 23 23 22 22 22 22 22 22 22 22 21 21 21 21 21 21 21
33 32 32 31 31 30 29 28 28 28 28 27 26 26 26 25 25 24 25 25 24 24 24 24 25 25 24 24 24 24 24 24 23 23 24 24 24 23 23 22 22 22 22
36 35 33 33 33 32 31 31 30 29 28 28 28 27 27 27 27 26 26 26 26 25 25 26 26 26 26 26 26 26 26 26 26 25 25 25 25 24 24 24 24 23 24
37 37 36 35 35 34 33 32 31 30 30 30 30 29 29 29 29 28 28 28 28 27 27 27 27 28 27 27 27 27 28 27 27 27 26 26 26 26 26 26 26 25 25
38 38 38 37 36 36 35 33 33 33 32 32 32 32 31 31 30 30 30 30 29 29 29 29 29 29 29 29 29 28 28 29 29 28 28 28 28 28 28 28 28 28 27
39 39 39 38 38 38 37 36 35 34 34 34 33 33 32 32 32 32 32 32 31 31 31 31 31 30 30 30 30 30 30 30 30 30 30 30 30 29 29 29 30 30 30
41 40 40 40 39 39 39 38 37 36 36 35 35 34 34 34 33 33 33 34 34 33 33 33 33 32 32 32 32 31 31 31 32 32 32 32 32 31 31 32 32 32 32
42 42 42 42 41 41 40 40 39 38 38 37 37 36 36 36 35 35 35 35 35 35 35 34 34 34 34 34 33 33 33 34 34 34 34 33 33 33 33 33 34 34 33
44 44 44 44 44 42 42 42 41 41 40 39 39 38 38 38 38 37 37 37 37 37 36 36 36 35 35 36 36 36 35 35 35 36 36 35 35 35 35 35 35 35 35
46 46 45 45 45 44 44 43 43 42 42 42 41 40 40 39 39 39 39 39 38 37 37 38 38 37 37 37 38 39 38 37 37 37 38 37 37 37 37 36 37 36 36
47 47 47 46 46 46 45 45 45 45 44 44 43 42 41 41 41 41 41 40 40 40 39 39 39 39 39 40 40 40 40 39 39 39 39 39 39 39 39 38 38 37 37
48 48 48 48 47 46 47 48 47 46 46 45 44 44 44 43 43 43 43 42 42 42 41 42 41 41 41 41 41 42 42 42 42 40 40 40 40 40 40 39 39 38 38
48 48 49 49 48 47 47 48 47 47 47 47 46 46 46 45 45 45 45 44 44 44 44 44 44 43 43 43 43 42 43 44 43 43 42 41 41 41 40 40 40 40 40
48 48 49 48 49 49 49 49 49 49 49 49 49 48 48 47 47 47 47 47 46 46 46 45 46 46 45 45 45 44 44 44 44 45 45 43 43 42 42 41 42 42 41
Wind_Direction
247 247 248 247 249 249 249 249 248 247 244 245 246 245 246 245 243 242 243 243 241 242 244 241 246 253 260 263 266 264 264 257 255 247 241 243 243 247 253 260 272 274 269
249 249 250 248 247 249 250 249 248 249 246 246 247 248 248 245 244 244 244 247 247 247 246 245 247 251 252 256 254 258 262 258 255 257 259 258 258 257 260 266 271 269 269
250 250 249 248 248 249 250 250 250 249 247 247 248 250 249 247 247 247 248 250 251 251 250 248 248 248 249 253 255 256 258 260 259 257 261 264 263 263 265 269 267 265 264
250 248 247 246 248 249 250 252 252 250 248 249 248 250 251 252 252 253 252 251 254 252 252 249 248 248 249 252 257 258 257 257 260 261 261 263 264 265 266 266 264 262 260
250 249 248 248 249 250 250 250 251 253 254 253 252 251 252 254 255 256 255 253 256 254 252 250 247 248 251 255 258 259 258 259 260 262 262 265 265 265 264 265 266 264 260
250 250 250 249 250 251 251 250 251 253 254 254 254 255 253 255 256 256 255 255 256 254 251 249 249 251 254 256 258 259 258 257 259 261 262 263 264 264 262 262 265 264 262
250 250 251 251 250 251 252 252 252 254 253 253 253 255 253 253 253 255 256 255 255 254 251 252 254 256 257 258 258 258 255 255 257 261 262 263 265 265 263 261 261 263 264
250 251 251 252 251 251 252 253 253 252 252 252 253 254 255 255 255 255 255 256 256 256 255 255 257 258 259 259 259 257 256 257 258 259 261 262 265 264 263 261 262 263 264
250 250 251 252 250 250 251 251 252 251 252 252 253 254 254 255 256 256 257 257 257 257 256 256 257 259 260 261 260 258 257 257 258 259 260 263 263 263 262 260 261 263 262
250 249 250 251 251 250 251 251 250 251 252 252 252 253 253 254 256 257 258 258 258 259 258 257 259 259 260 262 262 260 258 256 256 258 259 262 262 263 261 261 259 260 261
251 250 248 249 250 251 251 250 250 251 252 252 252 253 254 256 257 258 258 257 258 259 259 259 260 261 262 264 264 261 258 257 256 257 259 261 261 262 261 260 259 260 260
250 251 250 250 250 250 250 249 250 252 252 252 253 254 255 257 258 259 259 259 259 260 260 260 261 263 264 264 264 261 257 258 258 259 260 261 262 263 261 260 260 260 260
250 250 251 250 249 249 250 250 251 252 252 253 254 255 256 257 259 259 260 261 260 261 261 261 263 264 264 264 263 261 260 259 259 260 260 260 261 264 264 263 261 260 261
249 249 248 248 248 249 250 250 251 252 253 253 255 256 257 259 260 260 261 262 262 261 261 262 263 264 264 264 262 261 260 259 261 262 262 262 263 263 264 263 260 260 261
249 248 248 248 248 249 250 251 251 253 254 255 256 257 258 258 260 260 261 262 262 261 262 262 264 264 264 264 262 262 261 261 262 264 264 263 263 262 263 262 259 260 261
249 248 248 248 247 247 249 251 252 253 255 256 256 257 259 260 260 261 262 262 262 262 263 264 264 264 264 263 262 262 262 262 263 264 263 263 263 262 263 262 261 260 261
249 249 248 248 247 248 249 251 252 253 255 256 256 258 259 260 260 261 262 262 262 263 264 265 265 264 263 262 261 261 262 263 262 263 263 264 264 264 264 263 262 261 262
249 249 248 248 248 249 250 251 251 253 255 256 256 258 259 260 261 261 262 262 263 264 265 264 264 263 262 262 261 260 261 263 264 263 264 265 265 265 265 265 264 263 264
249 249 248 248 248 249 250 251 251 253 254 256 257 257 259 260 261 262 263 263 264 264 264 264 262 261 261 261 262 261 262 262 264 264 264 265 266 267 267 267 265 265 264
249 249 249 249 248 250 251 252 253 253 254 256 257 258 259 260 262 263 263 263 264 264 264 264 262 261 261 261 261 262 262 263 264 264 265 266 267 267 268 267 266 266 264
250 250 249 250 250 251 251 252 253 253 254 255 256 257 259 260 262 263 264 264 264 264 265 264 263 263 262 261 261 262 263 264 265 264 265 266 268 268 267 267 266 265 263
250 250 250 251 251 251 251 252 252 253 255 256 256 257 259 260 261 263 264 265 264 264 264 264 264 263 263 263 263 262 263 264 265 265 266 266 268 268 267 267 265 263 261
249 250 251 252 252 252 251 252 252 254 255 257 257 258 259 260 261 262 263 264 264 263 264 265 265 265 264 264 264 264 263 264 264 264 265 267 267 267 267 266 264 262 260
250 250 250 251 252 252 252 252 253 254 255 256 257 258 259 260 261 262 263 263 264 264 264 265 266 266 265 265 265 264 265 265 264 263 264 266 267 266 266 265 263 261 260
250 251 251 251 251 252 251 252 253 253 254 256 257 258 259 260 261 262 262 263 264 264 265 266 266 265 265 265 265 265 264 264 264 265 265 265 266 265 265 264 263 261 260
250 251 251 251 252 251 251 252 253 254 254 255 256 257 259 260 261 262 262 263 264 264 265 266 266 265 265 264 264 264 265 265 266 266 266 264 264 264 264 263 263 262 261
Height
5831 5831 5832 5833 5834 5834 5835 5836 5837 5837 5838 5839 5839 5840 5841 5841 5841 5842 5842 5843 5843 5844 5844 5845 5845 5845 5846 5846 5847 5847 5847 5848 5848 5849 5849 5850 5850 5850 5851 5851 5851 5852 5852
5828 5829 5830 5830 5831 5832 5833 5834 5835 5836 5836 5837 5838 5838 5839 5840 5840 5841 5841 5841 5842 5842 5843 5844 5844 5845 5845 5846 5846 5846 5847 5847 5848 5848 5849 5849 5850 5850 5850 5850 5851 5851 5851
5825 5826 5827 5828 5829 5830 5831 5832 5833 5833 5834 5835 5835 5836 5837 5838 5838 5839 5840 5840 5841 5841 5841 5842 5843 5843 5844 5845 5845 5845 5846 5846 5847 5847 5848 5848 5849 5849 5849 5850 5850 5850 5850
5822 5823 5824 5825 5826 5827 5828 5829 5830 5831 5832 5832 5833 5834 5835 5835 5836 5837 5838 5838 5839 5839 5840 5840 5841 5842 5842 5843 5844 5844 5844 5845 5846 5846 5847 5847 5848 5848 5848 5848 5849 5849 5849
5819 5820 5821 5822 5823 5824 5825 5826 5827 5828 5829 5830 5831 5832 5832 5833 5834 5835 5835 5836 5837 5837 5838 5838 5839 5840 5840 5841 5842 5842 5843 5843 5844 5845 5845 5846 5846 5846 5847 5847 5847 5848 5848
5815 5816 5818 5819 5820 5821 5822 5823 5824 5825 5826 5827 5828 5829 5830 5830 5831 5832 5833 5834 5834 5835 5835 5836 5837 5837 5838 5839 5839 5840 5841 5841 5842 5843 5843 5844 5844 5845 5845 5845 5846 5846 5847
5811 5813 5814 5815 5816 5817 5818 5819 5820 5822 5823 5824 5825 5826 5826 5827 5828 5829 5830 5831 5831 5832 5833 5833 5834 5835 5835 5836 5837 5837 5838 5839 5840 5841 5841 5842 5842 5843 5843 5843 5844 5844 5845
5807 5808 5809 5811 5812 5813 5815 5816 5817 5818 5819 5820 5821 5822 5823 5824 5825 5826 5827 5828 5828 5829 5830 5830 5831 5832 5833 5833 5834 5835 5835 5836 5837 5838 5839 5839 5840 5840 5840 5841 5842 5842 5842
5802 5803 5805 5806 5808 5809 5810 5811 5813 5814 5815 5816 5817 5819 5820 5820 5821 5822 5823 5824 5825 5826 5826 5827 5828 5829 5829 5830 5831 5831 5832 5833 5834 5835 5836 5836 5837 5837 5838 5838 5839 5839 5840
5797 5798 5800 5801 5803 5804 5806 5807 5808 5810 5811 5812 5813 5814 5815 5816 5817 5818 5819 5820 5821 5822 5823 5823 5824 5825 5826 5826 5827 5828 5829 5830 5831 5831 5832 5833 5834 5834 5835 5835 5836 5836 5837
5791 5793 5795 5796 5798 5799 5801 5802 5803 5805 5806 5807 5809 5810 5811 5812 5813 5814 5815 5816 5817 5817 5818 5819 5820 5821 5821 5822 5823 5824 5825 5826 5827 5828 5829 5829 5830 5830 5831 5832 5832 5833 5834
5785 5787 5789 5790 5792 5794 5795 5797 5798 5800 5801 5803 5804 5805 5806 5807 5808 5809 5810 5811 5812 5813 5814 5814 5815 5816 5817 5818 5818 5819 5821 5822 5823 5824 5824 5825 5826 5826 5827 5828 5828 5829 5830
5779 5781 5783 5785 5786 5788 5789 5791 5793 5794 5796 5797 5798 5800 5801 5802 5803 5804 5805 5806 5807 5807 5808 5809 5810 5811 5812 5813 5814 5815 5816 5817 5818 5819 5820 5820 5821 5822 5822 5823 5824 5824 5825
5772 5774 5776 5778 5780 5781 5783 5785 5787 5789 5790 5792 5793 5794 5795 5796 5797 5798 5799 5800 5801 5802 5803 5804 5804 5805 5806 5807 5808 5809 5811 5812 5813 5814 5814 5815 5816 5816 5817 5818 5818 5819 5820
5764 5767 5769 5771 5773 5774 5776 5778 5780 5782 5784 5785 5787 5788 5789 5790 5791 5792 5793 5794 5795 5796 5797 5798 5798 5799 5800 5801 5802 5803 5805 5806 5807 5808 5809 5809 5810 5811 5811 5812 5813 5814 5814
5757 5759 5761 5764 5766 5767 5769 5771 5774 5776 5777 5779 5780 5782 5783 5784 5785 5786 5787 5788 5789 5789 5790 5791 5792 5793 5794 5795 5796 5797 5798 5799 5800 5802 5803 5803 5804 5805 5805 5806 5807 5808 5808
5748 5751 5753 5755 5758 5760 5762 5764 5766 5768 5770 5772 5773 5775 5776 5777 5778 5779 5780 5781 5782 5782 5783 5784 5785 5786 5787 5788 5789 5790 5791 5792 5793 5795 5796 5797 5797 5798 5799 5799 5800 5801 5802
5739 5742 5744 5747 5750 5752 5754 5756 5758 5760 5762 5764 5765 5767 5768 5769 5771 5772 5773 5774 5774 5775 5775 5776 5777 5778 5780 5781 5782 5783 5784 5785 5786 5787 5788 5789 5790 5791 5791 5792 5793 5794 5794
5730 5733 5736 5739 5742 5744 5746 5748 5750 5752 5754 5756 5757 5759 5760 5761 5762 5764 5765 5766 5766 5767 5768 5768 5769 5770 5772 5773 5774 5775 5776 5777 5778 5779 5780 5781 5782 5783 5783 5784 5785 5785 5786
5721 5724 5727 5730 5732 5735 5737 5739 5741 5743 5745 5747 5749 5750 5752 5753 5754 5755 5756 5757 5758 5758 5759 5760 5761 5762 5763 5764 5765 5767 5768 5769 5770 5771 5772 5773 5774 5774 5775 5775 5776 5776 5777
5711 5715 5718 5720 5723 5725 5728 5730 5732 5734 5736 5738 5740 5741 5743 5744 5745 5746 5747 5748 5749 5750 5750 5751 5752 5753 5754 5755 5757 5758 5759 5760 5761 5762 5763 5764 5764 5765 5765 5766 5766 5767 5767
5701 5704 5707 5710 5712 5715 5717 5719 5722 5724 5726 5728 5730 5732 5733 5734 5735 5736 5737 5738 5739 5740 5741 5742 5743 5743 5744 5746 5747 5748 5750 5752 5752 5752 5753 5754 5754 5755 5755 5756 5756 5756 5757
5689 5692 5695 5698 5701 5704 5706 5708 5711 5713 5715 5718 5719 5721 5723 5724 5725 5726 5727 5728 5729 5730 5731 5732 5732 5734 5735 5736 5737 5737 5739 5741 5742 5743 5743 5743 5744 5744 5745 5745 5745 5746 5747
5678 5681 5683 5687 5690 5692 5695 5697 5700 5702 5705 5707 5708 5710 5712 5713 5714 5716 5717 5718 5719 5720 5720 5721 5722 5723 5724 5725 5726 5726 5727 5728 5730 5732 5733 5732 5732 5733 5733 5734 5735 5736 5737
5665 5668 5671 5674 5677 5680 5683 5685 5688 5690 5693 5695 5696 5698 5700 5702 5703 5704 5706 5707 5708 5708 5709 5710 5711 5711 5712 5713 5714 5715 5715 5716 5717 5719 5721 5721 5721 5722 5722 5723 5724 5725 5726
5653 5656 5659 5662 5665 5668 5670 5673 5675 5678 5680 5682 5684 5686 5688 5690 5691 5692 5693 5695 5696 5697 5697 5698 5698 5699 5700 5701 5702 5703 5703 5704 5705 5706 5707 5709 5710 5710 5711 5711 5712 5714 5715